Weather History for Georgetown, TX

Change the Weather History Date:

Tuesday, October 29, 2013

  Actual Average Record
Temperature  
Mean Temperature 76 °F -  
Max Temperature 82 °F 72 °F 86 °F (2004)
Min Temperature 69 °F 54 °F 33 °F (2012)
Cooling Degree Days 10    
Growing Degree Days 26 (Base 50)    
Moisture  
Dew Point 66 °F    
Average Humidity 81    
Maximum Humidity 88    
Minimum Humidity 58    
Precipitation  
Precipitation 0.00 in - - ()
Sea Level Pressure  
Sea Level Pressure 30.05 in    
Wind  
Wind Speed 9 mph (SSE)    
Max Wind Speed 20 mph    
Max Gust Speed 25 mph    
Visibility 10 miles    
Events      
Averages and records for this station are not official NWS values.
T = Trace of Precipitation, MM = Missing Value Source: NWS Daily Summary

Daily Weather History Graph

Daily Weather History Graph

Search for Another Location

Airport:

Trip Planner

Search our weather history database for the weather conditions in past years. The results will help you decide how hot, cold, wet, or windy it might be!

Date:

Astronomy

Oct. 29, 2013 Rise Set
Actual Time 7:43 AM CDT 6:44 PM CDT
Civil Twilight 7:18 AM CDT 7:09 PM CDT
Nautical Twilight 6:50 AM CDT 7:38 PM CDT
Astronomical Twilight 6:22 AM CDT 8:06 PM CDT
Moon 2:54 AM CDT (10/29) 3:41 PM CDT (10/29)
Length of Visible Light 11h 51m
Length of Day
11h 01m
Waning Crescent, 25% of the Moon is Illuminated
Oct 29
Waning Crescent
Nov 3
New
Nov 9
First Quarter
Nov 17
Full
Nov 25
Last Quarter

Hourly Weather History & Observations

Time (CDT) Temp. Heat Index Dew Point Humidity Pressure Visibility Wind Dir Wind Speed Gust Speed Precip Events Conditions
12:15 AM 69.8 °F - 64.4 °F 83% 30.07 in 10.0 mi SSE 9.2 mph - N/A   Clear
12:35 AM 69.8 °F - 64.4 °F 83% 30.07 in 10.0 mi SSE 9.2 mph - N/A   Partly Cloudy
12:55 AM 69.8 °F - 64.4 °F 83% 30.07 in 10.0 mi SSE 9.2 mph - N/A   Mostly Cloudy
1:15 AM 69.8 °F - 66.2 °F 88% 30.07 in 10.0 mi SSE 9.2 mph 17.3 mph N/A   Mostly Cloudy
1:35 AM 69.8 °F - 66.2 °F 88% 30.07 in 10.0 mi South 8.1 mph 17.3 mph N/A   Mostly Cloudy
1:55 AM 69.8 °F - 66.2 °F 88% 30.07 in 10.0 mi SSE 9.2 mph 17.3 mph N/A   Mostly Cloudy
2:15 AM 69.8 °F - 66.2 °F 88% 30.07 in 10.0 mi SSE 8.1 mph 17.3 mph N/A   Scattered Clouds
2:35 AM 69.8 °F - 66.2 °F 88% 30.07 in 10.0 mi SSE 8.1 mph - N/A   Partly Cloudy
2:55 AM 69.8 °F - 66.2 °F 88% 30.07 in 10.0 mi SSE 6.9 mph - N/A   Scattered Clouds
3:15 AM 69.8 °F - 66.2 °F 88% 30.06 in 10.0 mi SSE 9.2 mph - N/A   Mostly Cloudy
3:35 AM 69.8 °F - 66.2 °F 88% 30.06 in 10.0 mi SSE 8.1 mph - N/A   Mostly Cloudy
3:55 AM 69.8 °F - 66.2 °F 88% 30.06 in 10.0 mi SSE 6.9 mph - N/A   Overcast
4:15 AM 69.8 °F - 66.2 °F 88% 30.05 in 10.0 mi SSE 10.4 mph - N/A   Overcast
4:35 AM 69.8 °F - 66.2 °F 88% 30.05 in 10.0 mi SSE 9.2 mph - N/A   Overcast
4:55 AM 69.8 °F - 66.2 °F 88% 30.05 in 10.0 mi SSE 10.4 mph - N/A   Overcast
5:15 AM 69.8 °F - 66.2 °F 88% 30.05 in 10.0 mi SSE 6.9 mph - N/A   Overcast
5:35 AM 69.8 °F - 66.2 °F 88% 30.05 in 10.0 mi SSE 6.9 mph - N/A   Overcast
5:55 AM 69.8 °F - 66.2 °F 88% 30.05 in 10.0 mi SSE 8.1 mph - N/A   Overcast
6:15 AM 69.8 °F - 66.2 °F 88% 30.05 in 10.0 mi SSE 6.9 mph - N/A   Overcast
6:35 AM 69.8 °F - 66.2 °F 88% 30.06 in 10.0 mi SSE 5.8 mph - N/A   Overcast
6:47 AM 69.8 °F - 66.2 °F 88% 30.06 in 10.0 mi SSE 6.9 mph - N/A   Overcast
7:47 AM 69.8 °F - 66.2 °F 88% 30.07 in 10.0 mi SSE 5.8 mph - N/A   Overcast
8:47 AM 71.6 °F - 66.2 °F 83% 30.08 in 10.0 mi SSE 5.8 mph - N/A   Overcast
9:48 AM 73.4 °F - 68.0 °F 83% 30.09 in 10.0 mi South 13.8 mph 18.4 mph N/A   Overcast
11:48 AM 75.2 °F - 69.8 °F 83% 30.08 in 10.0 mi South 17.3 mph 20.7 mph N/A   Overcast
12:49 PM 80.6 °F 83.9 °F 69.8 °F 70% 30.06 in 10.0 mi South 19.6 mph - N/A   Overcast
1:48 PM 80.6 °F 83.2 °F 68.0 °F 65% 30.03 in 10.0 mi South 17.3 mph 25.3 mph N/A   Overcast
2:50 PM 80.6 °F 82.7 °F 66.2 °F 61% 30.00 in 10.0 mi SSE 12.7 mph 17.3 mph N/A   Mostly Cloudy
3:48 PM 82.4 °F 84.6 °F 66.2 °F 58% 29.99 in 10.0 mi SSE 12.7 mph 20.7 mph N/A   Mostly Cloudy
4:48 PM 82.4 °F 84.6 °F 66.2 °F 58% 30.00 in 10.0 mi SSE 8.1 mph - N/A   Mostly Cloudy
5:48 PM 80.6 °F 82.7 °F 66.2 °F 61% 30.00 in 10.0 mi SSE 10.4 mph - N/A   Scattered Clouds
6:48 PM 78.8 °F - 66.2 °F 65% 30.00 in 10.0 mi SSE 6.9 mph - N/A   Mostly Cloudy
8:46 PM 75.2 °F - 66.2 °F 73% 30.03 in 10.0 mi SSE 10.4 mph - N/A   Clear
9:48 PM 73.4 °F - 66.2 °F 78% 30.04 in 10.0 mi SSE 12.7 mph 17.3 mph N/A   Clear
10:15 PM 73.4 °F - 66.2 °F 78% 30.05 in 10.0 mi SSE 6.9 mph - N/A   Clear
10:35 PM 73.4 °F - 66.2 °F 78% 30.06 in 10.0 mi SSE 8.1 mph - N/A   Clear
10:55 PM 73.4 °F - 66.2 °F 78% 30.05 in 10.0 mi SSE 9.2 mph - N/A   Scattered Clouds
11:15 PM 73.4 °F - 66.2 °F 78% 30.05 in 10.0 mi SSE 10.4 mph 16.1 mph N/A   Overcast
11:35 PM 73.4 °F - 66.2 °F 78% 30.05 in 10.0 mi SSE 6.9 mph 16.1 mph N/A   Overcast
11:55 PM 71.6 °F - 66.2 °F 83% 30.05 in 10.0 mi SSE 10.4 mph 16.1 mph N/A   Overcast